W8MAL Weather Reports


Display with metric or nautical units.
time (UTC)temp
F
wind
direction
speed
MPH
gust
MPH
rain 1hr
in
rain 24hr
in
rain mn
in
humidity
%
barometer
mb
20260903034107 80 189 1.0 1.0 0.00 0.00 0.00 86 1012.3
20260903033602 80 189 2.0 2.0 0.00 0.00 0.00 86 1012.3
20260903033057 81 189 2.0 2.0 0.00 0.00 0.00 86 1012.3
20260903032552 80 189 4.0 4.0 0.00 0.00 0.00 86 1012.3
20260903032048 80 189 2.0 2.0 0.00 0.00 0.00 86 1012.3
20260903031548 80 189 2.0 2.0 0.00 0.00 0.00 87 1012.3
20260903031043 79 189 4.0 4.0 0.00 0.00 0.00 88 1012.3
20260903030538 79 189 4.0 4.0 0.00 0.00 0.00 89 1012.3
20260903030034 79 189 3.0 3.0 0.00 0.00 0.00 88 1012.3
20260903025529 79 189 4.0 4.0 0.00 0.00 0.00 88 1012.7
20260903025025 79 189 2.0 2.0 0.00 0.00 0.00 88 1012.7
20260903024525 79 189 3.0 3.0 0.00 0.00 0.00 89 1013.0
20260903024019 79 189 3.0 3.0 0.00 0.00 0.00 89 1013.0
20260903023515 79 189 2.0 2.0 0.00 0.00 0.00 89 1013.0
20260903023010 79 189 3.0 3.0 0.00 0.00 0.00 89 1013.0
20260903022509 79 189 2.0 2.0 0.00 0.00 0.00 88 1013.0
20260903022008 79 189 2.0 2.0 0.00 0.00 0.00 88 1013.0
20260903021503 79 189 2.0 2.0 0.00 0.00 0.00 87 1013.0
20260903020958 79 189 2.0 2.0 0.00 0.00 0.00 86 1013.0
20260903020454 79 189 2.0 2.0 0.00 0.00 0.00 86 1013.0
20260903015948 79 189 2.0 2.0 0.00 0.00 0.00 86 1013.0
20260903015444 80 189 2.0 2.0 0.00 0.00 0.00 86 1013.0
20260903014939 80 189 1.0 1.0 0.00 0.00 0.00 86 1013.0
20260903014438 80 189 3.0 3.0 0.00 0.00 0.00 86 1013.0
20260903013933 80 189 2.0 2.0 0.00 0.00 0.00 86 1013.0
20260903013433 80 189 2.0 2.0 0.00 0.00 0.00 86 1013.0
20260903012932 80 189 0.0 0.0 0.00 0.00 0.00 86 1013.0
20260903012431 80 189 0.0 0.0 0.00 0.00 0.00 86 1013.0
20260903011930 81 189 0.0 0.0 0.00 0.00 0.00 84 1013.0
20260903011425 81 189 0.0 0.0 0.00 0.00 0.00 83 1012.7
20260903010920 81 189 0.0 0.0 0.00 0.00 0.00 83 1012.7
20260903010416 81 189 0.0 0.0 0.00 0.00 0.00 83 1012.7
20260903005913 81 189 0.0 0.0 0.00 0.00 0.00 83 1013.0
20260903005409 82 189 0.0 0.0 0.00 0.00 0.00 83 1013.0
20260903004905 82 189 0.0 0.0 0.00 0.00 0.00 82 1013.0
20260903004401 82 189 0.0 0.0 0.00 0.00 0.00 81 1012.7
20260903003855 82 189 0.0 0.0 0.00 0.00 0.00 81 1012.7
20260903003350 83 189 0.0 0.0 0.00 0.00 0.00 81 1012.7
20260903002850 83 189 0.0 0.0 0.00 0.00 0.00 79 1012.7
20260903002345 83 189 0.0 0.0 0.00 0.00 0.00 78 1012.7
20260903001840 84 189 0.0 0.0 0.00 0.00 0.00 78 1012.7
20260903001335 84 190 0.0 0.0 0.00 0.00 0.00 77 1013.0
20260903000835 84 190 1.0 1.0 0.00 0.00 0.00 77 1013.0
20260903000332 85 189 2.0 2.0 0.00 0.00 0.00 76 1013.0
20260902235828 85 190 1.0 1.0 0.00 0.00 0.00 75 1013.0
20260902235323 85 190 2.0 2.0 0.00 0.00 0.00 74 1013.0
20260902234823 86 190 0.0 0.0 0.00 0.00 0.00 74 1013.0
20260902234323 86 190 0.0 0.0 0.00 0.00 0.00 73 1012.7
20260902233822 86 190 2.0 2.0 0.00 0.00 0.00 72 1012.7
20260902233321 87 190 3.0 4.0 0.00 0.00 0.00 71 1012.7
20260902232820 87 190 3.0 3.0 0.00 0.00 0.00 71 1012.7
20260902232315 87 190 2.0 2.0 0.00 0.00 0.00 70 1012.7
20260902231815 87 190 2.0 2.0 0.00 0.00 0.00 70 1012.7
20260902231309 88 190 0.0 0.0 0.00 0.00 0.00 70 1013.0
20260902230805 88 190 2.0 2.0 0.00 0.00 0.00 69 1013.0
20260902230304 88 190 2.0 2.0 0.00 0.00 0.00 69 1013.0
20260902225758 88 190 0.0 0.0 0.00 0.00 0.00 70 1012.7
20260902225254 89 190 2.0 2.0 0.00 0.00 0.00 69 1012.7
20260902224752 89 190 2.0 2.0 0.00 0.00 0.00 69 1012.7
20260902224247 89 190 0.0 0.0 0.00 0.00 0.00 68 1012.7
20260902223744 89 190 2.0 2.0 0.00 0.00 0.00 68 1012.7
20260902223243 89 190 2.0 2.0 0.00 0.00 0.00 66 1012.7
20260902222737 89 190 2.0 2.0 0.00 0.00 0.00 66 1013.0
20260902222236 90 190 2.0 2.0 0.00 0.00 0.00 64 1013.0
20260902221731 91 190 3.0 3.0 0.00 0.00 0.00 63 1013.0
20260902221230 91 190 1.0 1.0 0.00 0.00 0.00 62 1012.7
20260902220726 91 190 3.0 3.0 0.00 0.00 0.00 62 1012.7
20260902220225 91 190 4.0 4.0 0.00 0.00 0.00 63 1012.7
20260902215721 91 192 2.0 2.0 0.00 0.00 0.00 62 1012.7
20260902215216 91 192 2.0 2.0 0.00 0.00 0.00 61 1012.7
20260902214712 92 192 3.0 3.0 0.00 0.00 0.00 59 1012.7
20260902214211 92 192 2.0 2.0 0.00 0.00 0.00 61 1013.0
20260902213707 92 192 3.0 3.0 0.00 0.00 0.00 59 1013.0
20260902213201 92 192 4.0 4.0 0.00 0.00 0.00 58 1013.0
20260902212656 92 192 2.0 2.0 0.00 0.00 0.00 59 1012.7
20260902212152 92 192 3.0 3.0 0.00 0.00 0.00 61 1012.7
20260902211648 93 192 4.0 5.0 0.00 0.00 0.00 59 1012.7
20260902211148 93 192 2.0 2.0 0.00 0.00 0.00 61 1013.0
20260902210648 94 192 3.0 3.0 0.00 0.00 0.00 59 1013.0
20260902210143 94 192 6.0 6.0 0.00 0.00 0.00 58 1013.0
20260902205642 94 192 2.0 2.0 0.00 0.00 0.00 59 1013.0
20260902205137 94 192 0.0 0.0 0.00 0.00 0.00 60 1013.0
20260902204632 95 192 2.0 2.0 0.00 0.00 0.00 59 1013.3
20260902204126 95 192 0.0 0.0 0.00 0.00 0.00 57 1013.3
20260902203622 95 192 3.0 4.0 0.00 0.00 0.00 58 1013.3
20260902203122 95 192 2.0 2.0 0.00 0.00 0.00 57 1013.3
20260902202618 94 192 3.0 3.0 0.00 0.00 0.00 57 1013.3
20260902202114 94 192 2.0 2.0 0.00 0.00 0.00 59 1013.3
20260902201610 95 192 3.0 4.0 0.00 0.00 0.00 58 1013.3
20260902201108 95 192 2.0 2.0 0.00 0.00 0.00 57 1013.3
20260902200604 95 192 2.0 2.0 0.00 0.00 0.00 58 1013.3
20260902200100 94 192 3.0 3.0 0.00 0.00 0.00 58 1013.3
20260902195555 95 192 2.0 2.0 0.00 0.00 0.00 60 1013.7
20260902195054 95 192 4.0 4.0 0.00 0.00 0.00 59 1013.7
20260902194554 95 192 4.0 4.0 0.00 0.00 0.00 57 1013.7
20260902194049 95 192 2.0 2.0 0.00 0.00 0.00 58 1014.0
20260902193546 94 192 3.0 3.0 0.00 0.00 0.00 58 1014.0
20260902193044 94 192 3.0 3.0 0.00 0.00 0.00 57 1014.0
20260902192543 95 192 4.0 4.0 0.00 0.00 0.00 58 1013.7
20260902192042 95 192 3.0 3.0 0.00 0.00 0.00 59 1013.7
20260902191538 95 192 4.0 4.0 0.00 0.00 0.00 58 1013.7
20260902191032 95 192 2.0 2.0 0.00 0.00 0.00 57 1014.0
20260902190528 95 192 4.0 4.0 0.00 0.00 0.00 56 1014.0
20260902190024 94 192 3.0 3.0 0.00 0.00 0.00 58 1014.0
20260902185519 93 192 0.0 0.0 0.00 0.00 0.00 61 1014.0
20260902185015 94 192 2.0 2.0 0.00 0.00 0.00 58 1014.0
20260902184509 93 192 2.0 2.0 0.00 0.00 0.00 59 1014.0
20260902184005 93 192 2.0 2.0 0.00 0.00 0.00 60 1014.4
20260902183501 93 192 2.0 2.0 0.00 0.00 0.00 62 1014.4
20260902182957 92 192 2.0 2.0 0.00 0.00 0.00 64 1014.7
20260902182453 92 192 3.0 3.0 0.00 0.00 0.00 64 1014.7
20260902181949 92 192 2.0 2.0 0.00 0.00 0.00 66 1014.7
20260902181445 91 192 2.0 2.0 0.00 0.00 0.00 64 1014.7
20260902180944 93 192 3.0 3.0 0.00 0.00 0.00 63 1014.7
20260902180439 93 192 2.0 2.0 0.00 0.00 0.00 62 1014.7
20260902175935 92 192 1.0 1.0 0.00 0.00 0.00 64 1015.0
20260902175430 92 192 3.0 3.0 0.00 0.00 0.00 65 1015.0
20260902174926 92 192 2.0 2.0 0.00 0.00 0.00 63 1015.0
20260902174422 91 192 2.0 2.0 0.00 0.00 0.00 64 1014.7
20260902173918 90 192 2.0 2.0 0.00 0.00 0.00 68 1014.7
20260902173417 92 192 4.0 4.0 0.00 0.00 0.00 66 1014.7
20260902172912 92 192 2.0 2.0 0.00 0.00 0.00 62 1014.7
20260902172411 92 192 3.0 3.0 0.00 0.00 0.00 64 1014.7
20260902171907 92 192 2.0 2.0 0.00 0.00 0.00 64 1014.7
20260902171402 92 192 2.0 2.0 0.00 0.00 0.00 64 1015.0
20260902170858 91 192 0.0 0.0 0.00 0.00 0.00 65 1015.0
20260902170358 91 192 2.0 2.0 0.00 0.00 0.00 67 1015.0
20260902165854 92 192 3.0 3.0 0.00 0.00 0.00 65 1015.4
20260902165353 92 192 4.0 4.0 0.00 0.00 0.00 66 1015.4
20260902164848 91 192 3.0 3.0 0.00 0.00 0.00 68 1015.4
20260902164343 89 192 3.0 3.0 0.00 0.00 0.00 67 1015.4
20260902163842 90 192 2.0 2.0 0.00 0.00 0.00 67 1015.4
20260902163337 89 190 0.0 0.0 0.00 0.00 0.00 70 1015.4
20260902162835 89 192 0.0 0.0 0.00 0.00 0.00 69 1015.4
20260902162331 89 192 1.0 1.0 0.00 0.00 0.00 68 1015.4
20260902161830 89 192 0.0 0.0 0.00 0.00 0.00 69 1015.4
20260902161326 90 192 3.0 4.0 0.00 0.00 0.00 68 1015.4
20260902160822 89 192 0.0 0.0 0.00 0.00 0.00 70 1015.4
20260902160317 89 192 2.0 2.0 0.00 0.00 0.00 69 1015.4
20260902155815 89 192 3.0 3.0 0.00 0.00 0.00 69 1015.4
20260902155314 90 192 3.0 3.0 0.00 0.00 0.00 68 1015.4
20260902154809 89 192 2.0 2.0 0.00 0.00 0.00 68 1015.4
20260902154305 88 190 3.0 3.0 0.00 0.00 0.00 71 1015.0
20260902153804 87 192 0.0 0.0 0.00 0.00 0.00 69 1015.0
20260902153258 88 192 2.0 2.0 0.00 0.00 0.00 70 1015.0
20260902152754 90 192 1.0 1.0 0.00 0.00 0.00 70 1015.0
20260902152250 89 192 1.0 1.0 0.00 0.00 0.00 68 1015.0
20260902151750 88 192 1.0 1.0 0.00 0.00 0.00 71 1015.0
20260902151245 87 192 1.0 1.0 0.00 0.00 0.00 71 1015.4
20260902150740 87 192 2.0 2.0 0.00 0.00 0.00 72 1015.4
20260902150236 88 192 2.0 2.0 0.00 0.00 0.00 71 1015.4
20260902145735 88 192 2.0 2.0 0.00 0.00 0.00 70 1015.0
20260902145231 87 192 3.0 3.0 0.00 0.00 0.00 71 1015.0
20260902144726 87 192 0.0 0.0 0.00 0.00 0.00 71 1015.0
20260902144222 88 192 4.0 4.0 0.00 0.00 0.00 70 1015.0
20260902143717 87 192 1.0 1.0 0.00 0.00 0.00 71 1015.0
20260902143212 86 190 2.0 2.0 0.00 0.00 0.00 72 1015.0
20260902142708 86 192 1.0 1.0 0.00 0.00 0.00 73 1014.7
20260902142203 87 192 0.0 0.0 0.00 0.00 0.00 73 1014.7
20260902141703 86 190 0.0 0.0 0.00 0.00 0.00 74 1014.7
20260902141159 86 189 2.0 2.0 0.00 0.00 0.00 77 1015.0
20260902140654 85 189 2.0 2.0 0.00 0.00 0.00 80 1015.0
20260902140155 85 189 3.0 3.0 0.00 0.00 0.00 78 1015.0
20260902135653 84 189 2.0 2.0 0.00 0.00 0.00 78 1015.4
20260902135149 83 189 2.0 2.0 0.00 0.00 0.00 80 1015.4
20260902134644 81 189 0.0 0.0 0.00 0.00 0.00 84 1015.4
20260902134144 80 189 0.0 0.0 0.00 0.00 0.00 86 1015.0
20260902133640 79 189 0.0 0.0 0.00 0.00 0.00 87 1015.0
20260902133139 79 189 0.0 0.0 0.00 0.00 0.00 90 1015.0
20260902132635 79 189 0.0 0.0 0.00 0.00 0.00 92 1015.0
20260902132130 78 189 0.0 0.0 0.00 0.00 0.00 91 1015.0
20260902131626 78 189 0.0 0.0 0.00 0.00 0.00 92 1015.0
20260902131121 78 189 0.0 0.0 0.00 0.00 0.00 93 1015.0
20260902130617 77 189 0.0 0.0 0.00 0.00 0.00 93 1015.0
20260902130113 77 189 0.0 0.0 0.00 0.00 0.00 93 1015.0
20260902125608 77 189 2.0 2.0 0.00 0.00 0.00 94 1015.0
20260902125103 76 189 0.0 0.0 0.00 0.00 0.00 94 1015.0
20260902124600 76 189 0.0 0.0 0.00 0.00 0.00 95 1015.0
20260902124059 76 188 2.0 2.0 0.00 0.00 0.00 95 1015.0
20260902123555 76 188 0.0 0.0 0.00 0.00 0.00 95 1015.0
20260902123050 76 189 0.0 0.0 0.00 0.00 0.00 95 1015.0
20260902122549 76 189 0.0 0.0 0.00 0.00 0.00 95 1015.0
20260902122045 75 189 0.0 0.0 0.00 0.00 0.00 95 1015.0
20260902121545 75 189 0.0 0.0 0.00 0.00 0.00 96 1015.0
20260902121040 75 189 0.0 0.0 0.00 0.00 0.00 97 1015.0
20260902120536 75 189 0.0 0.0 0.00 0.00 0.00 97 1015.0
20260902120032 74 189 0.0 0.0 0.00 0.00 0.00 97 1015.0
20260902115532 74 189 0.0 0.0 0.00 0.00 0.00 97 1015.0
20260902115029 74 189 2.0 2.0 0.00 0.00 0.00 98 1015.0
20260902114525 74 189 0.0 0.0 0.00 0.00 0.00 98 1014.7
20260902114024 74 189 0.0 0.0 0.00 0.00 0.00 98 1014.7
20260902113520 74 189 0.0 0.0 0.00 0.00 0.00 98 1014.7
20260902113015 73 189 3.0 3.0 0.00 0.00 0.00 99 1014.7
20260902112510 73 189 0.0 0.0 0.00 0.00 0.00 99 1014.7
20260902112007 73 189 0.0 0.0 0.00 0.00 0.00 99 1014.7
20260902111503 73 189 0.0 0.0 0.00 0.00 0.00 99 1014.7
20260902110958 73 189 0.0 0.0 0.00 0.00 0.00 99 1014.7
20260902110454 73 188 0.0 0.0 0.00 0.00 0.00 99 1014.7
20260902105949 73 189 0.0 0.0 0.00 0.00 0.00 99 1014.7
20260902105444 73 189 0.0 0.0 0.00 0.00 0.00 99 1014.7
20260902104939 73 189 0.0 0.0 0.00 0.00 0.00 99 1014.7
20260902104435 73 189 0.0 0.0 0.00 0.00 0.00 99 1014.7
20260902103934 73 189 0.0 0.0 0.00 0.00 0.00 99 1014.7
20260902103430 73 189 0.0 0.0 0.00 0.00 0.00 99 1014.7
20260902102925 73 188 0.0 0.0 0.00 0.00 0.00 99 1014.4
20260902102422 72 188 0.0 0.0 0.00 0.00 0.00 99 1014.4
20260902101918 72 188 0.0 0.0 0.00 0.00 0.00 99 1014.4
20260902101412 73 189 0.0 0.0 0.00 0.00 0.00 99 1014.7
20260902100912 73 188 0.0 0.0 0.00 0.00 0.00 99 1014.7
20260902100412 73 189 0.0 0.0 0.00 0.00 0.00 99 1014.7
20260902095906 72 188 0.0 0.0 0.00 0.00 0.00 99 1014.7
20260902095401 72 188 0.0 0.0 0.00 0.00 0.00 99 1014.7
20260902094900 72 189 0.0 0.0 0.00 0.00 0.00 99 1014.7
20260902094357 72 188 0.0 0.0 0.00 0.00 0.00 99 1014.7
20260902093856 73 188 0.0 0.0 0.00 0.00 0.00 99 1014.7
20260902093352 72 189 0.0 0.0 0.00 0.00 0.00 99 1014.7
20260902092850 73 189 0.0 0.0 0.00 0.00 0.00 99 1014.7
20260902092347 73 189 0.0 0.0 0.00 0.00 0.00 99 1014.7
20260902091847 72 188 0.0 0.0 0.00 0.00 0.00 99 1014.7
20260902091342 73 189 0.0 0.0 0.00 0.00 0.00 99 1014.7
20260902090839 73 189 0.0 0.0 0.00 0.00 0.00 99 1014.7
20260902090338 72 188 0.0 0.0 0.00 0.00 0.00 99 1014.7
20260902085837 72 189 0.0 0.0 0.00 0.00 0.00 99 1014.7
20260902085332 73 189 0.0 0.0 0.00 0.00 0.00 99 1014.7
20260902084828 73 189 0.0 0.0 0.00 0.00 0.00 99 1014.7
20260902084325 73 189 0.0 0.0 0.00 0.00 0.00 99 1014.7
20260902083820 73 189 0.0 0.0 0.00 0.00 0.00 99 1014.7
20260902083319 73 189 0.0 0.0 0.00 0.00 0.00 99 1014.7
20260902082814 73 189 0.0 0.0 0.00 0.00 0.00 99 1014.7
20260902082311 73 189 0.0 0.0 0.00 0.00 0.00 99 1014.7
20260902081807 73 189 0.0 0.0 0.00 0.00 0.00 99 1014.7
20260902081302 72 188 0.0 0.0 0.00 0.00 0.00 99 1014.7
20260902080757 72 189 0.0 0.0 0.00 0.00 0.00 99 1014.7
20260902080254 72 188 0.0 0.0 0.00 0.00 0.00 99 1014.7
20260902075753 72 189 0.0 0.0 0.00 0.00 0.00 99 1014.0
20260902075250 73 189 0.0 0.0 0.00 0.00 0.00 99 1014.0
20260902074749 73 188 0.0 0.0 0.00 0.00 0.00 99 1014.0
20260902074245 73 189 0.0 0.0 0.00 0.00 0.00 99 1014.4
20260902073740 73 189 0.0 0.0 0.00 0.00 0.00 99 1014.4
20260902073236 73 189 0.0 0.0 0.00 0.00 0.00 99 1014.4
20260902072732 73 189 0.0 0.0 0.00 0.00 0.00 99 1014.0
20260902072228 73 189 0.0 0.0 0.00 0.00 0.00 99 1014.0
20260902071724 73 189 0.0 0.0 0.00 0.00 0.00 99 1014.0
20260902071219 73 189 0.0 0.0 0.00 0.00 0.00 99 1014.0
20260902070715 73 189 0.0 0.0 0.00 0.00 0.00 99 1014.0
20260902070214 73 189 2.0 2.0 0.00 0.00 0.00 99 1014.0
20260902065713 72 189 0.0 0.0 0.00 0.00 0.00 99 1014.4
20260902065209 72 188 0.0 0.0 0.00 0.00 0.00 99 1014.4
20260902064704 72 189 0.0 0.0 0.00 0.00 0.00 99 1014.4
20260902064201 72 188 0.0 0.0 0.00 0.00 0.00 99 1014.7
20260902063656 72 188 0.0 0.0 0.00 0.00 0.00 99 1014.7
20260902063156 71 188 0.0 0.0 0.00 0.00 0.00 99 1014.7
20260902062655 71 188 0.0 0.0 0.00 0.00 0.00 99 1014.4
20260902062150 71 188 0.0 0.0 0.00 0.00 0.00 99 1014.4
20260902061649 71 188 0.0 0.0 0.00 0.00 0.00 99 1014.4
20260902061145 71 188 0.0 0.0 0.00 0.00 0.00 99 1014.7
20260902060642 71 188 0.0 0.0 0.00 0.00 0.00 99 1014.7
20260902060138 71 188 0.0 0.0 0.00 0.00 0.00 99 1014.7
20260902055633 71 188 0.0 0.0 0.00 0.00 0.00 99 1014.7
20260902055129 71 188 0.0 0.0 0.00 0.00 0.00 99 1014.7
20260902054624 71 188 0.0 0.0 0.00 0.00 0.00 99 1014.7
20260902054120 71 188 0.0 0.0 0.00 0.00 0.00 99 1014.7
20260902053614 72 188 0.0 0.0 0.00 0.00 0.00 99 1014.7
20260902053109 72 188 0.0 0.0 0.00 0.00 0.00 99 1014.7
20260902052609 72 188 0.0 0.0 0.00 0.00 0.00 99 1014.7
20260902052104 72 188 0.0 0.0 0.00 0.00 0.00 98 1014.7
20260902051604 72 188 0.0 0.0 0.00 0.00 0.00 98 1014.7
20260902051104 72 188 0.0 0.0 0.00 0.00 0.00 98 1014.7
20260902050603 72 188 0.0 0.0 0.00 0.00 0.00 98 1014.7
20260902050059 72 188 0.0 0.0 0.00 0.00 0.00 99 1014.4
20260902045554 72 188 0.0 0.0 0.00 0.00 0.00 98 1014.4
20260902045051 72 188 0.0 0.0 0.00 0.00 0.00 98 1014.4
20260902044550 72 189 0.0 0.0 0.00 0.00 0.00 98 1014.4
20260902044046 73 189 0.0 0.0 0.00 0.00 0.00 98 1014.4
20260902043541 72 188 0.0 0.0 0.00 0.00 0.00 98 1014.4
20260902043037 72 188 0.0 0.0 0.00 0.00 0.00 97 1014.0
20260902042536 72 189 0.0 0.0 0.00 0.00 0.00 97 1014.0
20260902042032 72 189 0.0 0.0 0.00 0.00 0.00 97 1014.0
20260902041531 73 189 0.0 0.0 0.00 0.00 0.00 97 1014.0
20260902041027 73 189 0.0 0.0 0.00 0.00 0.00 96 1014.0
20260902040526 73 189 0.0 0.0 0.00 0.00 0.00 95 1014.0
20260902040026 73 189 0.0 0.0 0.00 0.00 0.00 94 1013.7
20260902035520 74 189 0.0 0.0 0.00 0.00 0.00 95 1013.7
20260902035015 74 189 0.0 0.0 0.00 0.00 0.00 94 1013.7
20260902034514 74 189 0.0 0.0 0.00 0.00 0.00 95 1014.4